Regional Weather Roundup
Issued by NWS

Home | Current Version | Previous Version | Graphics & Text | Print | Product List | Glossary On
Versions: 1 2 3 4 5 6 7 8 9 10 11 12 13 14 15 16 17 18 19 20 21 22 23 24 25 26 27 28 29 30 31 32 33 34 35 36 37 38 39 40 41 42 43 44 45 46 47 48 49 50
000
ASUS43 KOAX 271802
RWRNE

WEATHER ROUNDUP FOR NEBRASKA
NATIONAL WEATHER SERVICE OMAHA NE
100 PM CDT FRI MAY 27 2016

NOTES: SATELLITE DATA IS BEING USED TO AUGMENT CLOUD COVER ABOVE
       12000 FEET.
       "FAIR" INDICATES FEW OR NO CLOUDS BELOW 12,000 FEET WITH NO
       SIGNIFICANT WEATHER AND/OR OBSTRUCTIONS TO VISIBILITY.

  * THESE STATIONS DO NOT REPORT WEATHER SUCH AS RAIN...SNOW OR FOG.

NEZ001>004-019>022-054>056-271900-
NEBRASKA PANHANDLE

CITY           SKY/WX    TMP DP  RH WIND       PRES   REMARKS
SCOTTSBLUFF    LGT RAIN  58  45  62 NE18      29.90R
6HR MIN TEMP:  51; 6HR MAX TEMP:  59; 6HR PCP: TRACE;

ALLIANCE       LGT RAIN  50  46  86 NE14      29.89R
6HR MIN TEMP:  50; 6HR MAX TEMP:  52; 6HR PCP:  0.32;

CHADRON        CLOUDY    61  48  62 SE18      29.88S
6HR MIN TEMP:  46; 6HR MAX TEMP:  62;

SIDNEY         MOSUNNY   56  46  69 NE18      29.88R
6HR MIN TEMP:  50; 6HR MAX TEMP:  56; 6HR PCP:  0.37;

$$

NEZ057>060-069>072-079>082-271900-
SOUTHWEST NEBRASKA

CITY           SKY/WX    TMP DP  RH WIND       PRES   REMARKS
NORTH PLATTE   LGT RAIN  62  54  74 N9        29.80R
6HR MIN TEMP:  56; 6HR MAX TEMP:  62; 6HR PCP: TRACE;

IMPERIAL       CLOUDY    61  53  75 NE12      29.79R
6HR MIN TEMP:  54; 6HR MAX TEMP:  61;

LEXINGTON      CLOUDY    60  56  86 E12       29.78S
MCCOOK         CLOUDY    61  55  81 E12       29.76F
6HR MIN TEMP:  56; 6HR MAX TEMP:  62;

$$

NEZ005>010-023>029-035>040-094-271900-
NORTH CENTRAL NEBRASKA

CITY           SKY/WX    TMP DP  RH WIND       PRES   REMARKS
VALENTINE      CLOUDY    63  50  62 NE13G20   29.84F
6HR MIN TEMP:  55; 6HR MAX TEMP:  63; 6HR PCP:  0.15;

AINSWORTH      CLOUDY    64  55  73 N13G21    29.82S
BROKEN BOW     TSTM      60  56  86 E9        29.77F
6HR MIN TEMP:  57; 6HR MAX TEMP:  67; 6HR PCP:  0.18;

ORD            MOSUNNY   69  57  65 SE9       29.77S
6HR MIN TEMP:  57; 6HR MAX TEMP:  72; 6HR PCP: TRACE;

$$

NEZ041-046>049-061>064-073>077-083>087-271900-
SOUTH CENTRAL NEBRASKA

CITY           SKY/WX    TMP DP  RH WIND       PRES   REMARKS
GRAND ISLAND   CLOUDY    62  60  93 E7        29.79F
6HR MIN TEMP:  58; 6HR MAX TEMP:  65; 6HR PCP:  0.05;

HASTINGS       LGT RAIN  63  59  87 E9        29.77F
6HR MIN TEMP:  59; 6HR MAX TEMP:  63; 6HR PCP:  0.06;

KEARNEY *      CLOUDY    63  55  77 E13       29.79S
YORK           CLOUDY    63  59  88 E7        29.79F
$$

NEZ011>018-030>034-042>045-271900-
NORTHEAST NEBRASKA

CITY           SKY/WX    TMP DP  RH WIND       PRES   REMARKS
NORFOLK        MOSUNNY   71  55  56 S13       29.77R
6HR MIN TEMP:  59; 6HR MAX TEMP:  73;

ALBION         CLOUDY    69  55  62 S5        29.77F
BLAIR          PTSUNNY   72  61  69 E6        29.77F
FREMONT        MOSUNNY   73  60  63 S8        29.77F
TEKAMAH        CLOUDY    75  58  55 S14       29.76R
6HR MIN TEMP:  62; 6HR MAX TEMP:  75;

$$

NEZ050>053-065>068-078-088>093-271900-
SOUTHEAST NEBRASKA

CITY           SKY/WX    TMP DP  RH WIND       PRES   REMARKS
LINCOLN        CLOUDY    70  60  70 W5        29.78F
6HR MIN TEMP:  60; 6HR MAX TEMP:  70; 6HR PCP:  0.01;

OMAHA EPPLEY   PTSUNNY   73  61  65 SE12G18   29.76S
6HR MIN TEMP:  62; 6HR MAX TEMP:  74;

FALLS CITY     SUNNY     74  64  71 W5        29.74R
6HR MIN TEMP:  62; 6HR MAX TEMP:  74;

PLATTSMOUTH    PTSUNNY   72  63  72 S3        29.77F
$$

NEZ044-045-051>053-067-271900-
OMAHA AREA

CITY           SKY/WX    TMP DP  RH WIND       PRES   REMARKS
OMAHA EPPLEY   PTSUNNY   73  61  65 SE12G18   29.76S
6HR MIN TEMP:  62; 6HR MAX TEMP:  74;

BLAIR          PTSUNNY   72  61  69 E6        29.77F
FREMONT        MOSUNNY   73  60  63 S8        29.77F
OFFUTT AFB     MOSUNNY   72  61  68 S3        29.76S
PLATTSMOUTH    PTSUNNY   72  63  72 S3        29.77F
$$




USA.gov is the U.S. government's official web portal to all federal, state and local government web resources and services.